Weather History for Claxton, GA

Change the Weather History Date:

Monday, March 11, 2013

  Actual Average (KSAV) Record (KSAV)
Temperature  
Mean Temperature 60 °F 58 °F  
Max Temperature 73 °F 70 °F 87 °F (1967)
Min Temperature 46 °F 47 °F 28 °F (1969)
Degree Days  
Heating Degree Days 6 8  
Month to date heating degree days 95  
Since 1 July heating degree days 1612  
Cooling Degree Days 0 1  
Month to date cooling degree days 11  
Year to date cooling degree days 21  
Growing Degree Days 10 (Base 50)    
Moisture  
Dew Point 52 °F    
Average Humidity 74    
Maximum Humidity 100    
Minimum Humidity 47    
Precipitation  
Precipitation 0.00 in 0.12 in 1.95 in (1953)
Month to date precipitation 1.31  
Year to date precipitation 7.79  
Sea Level Pressure  
Sea Level Pressure 30.03 in    
Wind  
Wind Speed 4 mph (SSE)    
Max Wind Speed 12 mph    
Max Gust Speed 18 mph    
Visibility 10 miles    
Events      
T = Trace of Precipitation, MM = Missing Value Source: NWS Daily Summary

Daily Weather History Graph

Daily Weather History Graph

Search for Another Location

Airport:

Trip Planner

Search our weather history database for the weather conditions in past years. The results will help you decide how hot, cold, wet, or windy it might be!

Date:

Astronomy

Mar. 11, 2013 Rise Set
Actual Time 7:42 AM EDT 7:32 PM EDT
Civil Twilight 7:17 AM EDT 7:57 PM EDT
Nautical Twilight 6:49 AM EDT 8:25 PM EDT
Astronomical Twilight 6:21 AM EDT 8:54 PM EDT
Moon 7:16 AM EDT (3/11) 7:40 PM EDT (3/11)
Length of Visible Light 12h 39m
Length of Day
11h 50m
Waning Crescent, 0% of the Moon is Illuminated
Mar 11
Waning Crescent
Mar 11
New
Mar 19
First Quarter
Mar 27
Full
Apr 3
Last Quarter

Hourly Weather History & Observations

Time (EDT) Temp. Windchill Dew Point Humidity Pressure Visibility Wind Dir Wind Speed Gust Speed Precip Events Conditions
12:15 AM 55.4 °F - 51.8 °F 88% 30.18 in 10.0 mi East 4.6 mph - N/A   Clear
12:35 AM 53.6 °F - 51.8 °F 94% 30.18 in 10.0 mi East 4.6 mph - N/A   Clear
12:55 AM 53.6 °F - 51.8 °F 94% 30.17 in 10.0 mi East 5.8 mph - N/A   Clear
1:15 AM 53.6 °F - 51.8 °F 94% 30.16 in 10.0 mi East 6.9 mph - N/A   Clear
1:35 AM 53.6 °F - 50.0 °F 88% 30.15 in 10.0 mi East 5.8 mph - N/A   Clear
1:55 AM 53.6 °F - 50.0 °F 88% 30.14 in 10.0 mi East 4.6 mph - N/A   Clear
2:15 AM 53.6 °F - 50.0 °F 88% 30.15 in 10.0 mi ESE 3.5 mph - N/A   Clear
2:35 AM 51.8 °F - 50.0 °F 94% 30.15 in 10.0 mi Calm Calm - N/A   Clear
3:15 AM 50.0 °F - 50.0 °F 100% 30.14 in 10.0 mi Calm Calm - N/A   Clear
3:35 AM 50.0 °F - 50.0 °F 100% 30.13 in 10.0 mi Calm Calm - N/A   Clear
3:55 AM 48.2 °F - 48.2 °F 100% 30.13 in 10.0 mi Calm Calm - N/A   Clear
4:15 AM 48.2 °F - 48.2 °F 100% 30.12 in 10.0 mi Calm Calm - N/A   Clear
4:35 AM 48.2 °F - 48.2 °F 100% 30.10 in 10.0 mi Calm Calm - N/A   Clear
4:55 AM 46.4 °F - 46.4 °F 100% 30.10 in 10.0 mi Calm Calm - N/A   Clear
5:15 AM 46.4 °F - 46.4 °F 100% 30.09 in 10.0 mi Calm Calm - N/A   Clear
5:35 AM 46.4 °F - 46.4 °F 100% 30.08 in 10.0 mi Calm Calm - N/A   Clear
5:55 AM 46.4 °F - 46.4 °F 100% 30.09 in 10.0 mi Calm Calm - N/A   Clear
6:15 AM 46.4 °F - 46.4 °F 100% 30.09 in 10.0 mi Calm Calm - N/A   Clear
6:35 AM 46.4 °F - 46.4 °F 100% 30.09 in 10.0 mi Calm Calm - N/A   Clear
6:55 AM 46.4 °F 45.2 °F 46.4 °F 100% 30.08 in 10.0 mi East 3.5 mph - N/A   Clear
7:15 AM 46.4 °F - 46.4 °F 100% 30.08 in 10.0 mi Calm Calm - N/A   Clear
7:35 AM 46.4 °F - 46.4 °F 100% 30.08 in 10.0 mi Calm Calm - N/A   Clear
8:15 AM 48.2 °F - 48.2 °F 100% 30.09 in 10.0 mi Calm Calm - N/A   Clear
8:35 AM 50.0 °F - 50.0 °F 100% 30.10 in 10.0 mi Calm Calm - N/A   Scattered Clouds
8:55 AM 50.0 °F - 50.0 °F 100% 30.09 in 10.0 mi East 3.5 mph - N/A   Scattered Clouds
9:15 AM 53.6 °F - 53.6 °F 100% 30.09 in 10.0 mi East 3.5 mph - N/A   Clear
9:35 AM 55.4 °F - 55.4 °F 100% 30.09 in 10.0 mi Calm Calm - N/A   Clear
9:55 AM 59.0 °F - 55.4 °F 88% 30.10 in 10.0 mi Calm Calm - N/A   Scattered Clouds
10:15 AM 60.8 °F - 53.6 °F 77% 30.10 in 10.0 mi Calm Calm - N/A   Scattered Clouds
10:35 AM 62.6 °F - 53.6 °F 72% 30.10 in 10.0 mi Calm Calm - N/A   Mostly Cloudy
10:55 AM 64.4 °F - 55.4 °F 73% 30.10 in 10.0 mi Calm Calm - N/A   Scattered Clouds
11:15 AM 68.0 °F - 55.4 °F 64% 30.10 in 10.0 mi South 4.6 mph - N/A   Clear
11:35 AM 69.8 °F - 53.6 °F 56% 30.09 in 10.0 mi South 6.9 mph 16.1 mph N/A   Scattered Clouds
11:55 AM 69.8 °F - 53.6 °F 56% 30.09 in 10.0 mi South 5.8 mph - N/A   Mostly Cloudy
12:35 PM 69.8 °F - 53.6 °F 56% 30.07 in 10.0 mi SSE 10.4 mph - N/A   Clear
12:55 PM 69.8 °F - 53.6 °F 56% 30.06 in 10.0 mi South 8.1 mph - N/A   Mostly Cloudy
1:15 PM 71.6 °F - 53.6 °F 53% 30.06 in 10.0 mi South 9.2 mph - N/A   Mostly Cloudy
1:35 PM 71.6 °F - 53.6 °F 53% 30.05 in 10.0 mi SSW 6.9 mph - N/A   Overcast
2:15 PM 71.6 °F - 53.6 °F 53% 30.02 in 10.0 mi South 3.5 mph - N/A   Mostly Cloudy
2:35 PM 71.6 °F - 53.6 °F 53% 30.00 in 10.0 mi SSW 5.8 mph - N/A   Mostly Cloudy
2:55 PM 73.4 °F - 53.6 °F 50% 29.98 in 10.0 mi South 5.8 mph - N/A   Scattered Clouds
3:15 PM 73.4 °F - 53.6 °F 50% 29.97 in 10.0 mi South 6.9 mph 18.4 mph N/A   Scattered Clouds
3:35 PM 73.4 °F - 51.8 °F 47% 29.96 in 10.0 mi South 11.5 mph 17.3 mph N/A   Scattered Clouds
3:55 PM 73.4 °F - 53.6 °F 50% 29.96 in 10.0 mi South 8.1 mph - N/A   Mostly Cloudy
4:15 PM 73.4 °F - 53.6 °F 50% 29.94 in 10.0 mi South 6.9 mph - N/A   Scattered Clouds
4:35 PM 73.4 °F - 53.6 °F 50% 29.94 in 10.0 mi SE 5.8 mph - N/A   Scattered Clouds
4:55 PM 71.6 °F - 53.6 °F 53% 29.94 in 10.0 mi SSE 4.6 mph - N/A   Scattered Clouds
5:15 PM 73.4 °F - 53.6 °F 50% 29.94 in 10.0 mi SSE 4.6 mph - N/A   Mostly Cloudy
5:35 PM 73.4 °F - 53.6 °F 50% 29.92 in 10.0 mi SSE 6.9 mph - N/A   Mostly Cloudy
5:55 PM 71.6 °F - 53.6 °F 53% 29.92 in 10.0 mi SE 5.8 mph - N/A   Scattered Clouds
6:15 PM 71.6 °F - 53.6 °F 53% 29.91 in 10.0 mi SSE 10.4 mph 16.1 mph N/A   Clear
6:35 PM 71.6 °F - 53.6 °F 53% 29.91 in 10.0 mi SSE 6.9 mph - N/A   Clear
6:55 PM 71.6 °F - 53.6 °F 53% 29.89 in 10.0 mi SE 5.8 mph - N/A   Clear
7:15 PM 69.8 °F - 53.6 °F 56% 29.90 in 10.0 mi SE 8.1 mph - N/A   Clear
7:35 PM 69.8 °F - 55.4 °F 60% 29.90 in 10.0 mi SSE 8.1 mph - N/A   Clear
7:55 PM 69.8 °F - 55.4 °F 60% 29.90 in 10.0 mi SSE 10.4 mph 18.4 mph N/A   Clear
8:15 PM 68.0 °F - 55.4 °F 64% 29.89 in 10.0 mi SE 8.1 mph - N/A   Clear
8:35 PM 68.0 °F - 55.4 °F 64% 29.91 in 10.0 mi SSE 5.8 mph - N/A   Clear
8:55 PM 68.0 °F - 55.4 °F 64% 29.90 in 10.0 mi SSE 5.8 mph - N/A   Clear
9:15 PM 68.0 °F - 55.4 °F 64% 29.89 in 10.0 mi SSE 4.6 mph - N/A   Clear
9:35 PM 68.0 °F - 55.4 °F 64% 29.89 in 10.0 mi SE 5.8 mph - N/A   Clear
10:15 PM 68.0 °F - 55.4 °F 64% 29.89 in 10.0 mi SSE 8.1 mph - N/A   Clear
10:35 PM 68.0 °F - 55.4 °F 64% 29.90 in 10.0 mi SSE 8.1 mph - N/A   Clear
10:55 PM 68.0 °F - 55.4 °F 64% 29.90 in 10.0 mi SSE 6.9 mph - N/A   Scattered Clouds
11:15 PM 68.0 °F - 55.4 °F 64% 29.90 in 10.0 mi SSE 6.9 mph - N/A   Scattered Clouds
11:35 PM 68.0 °F - 55.4 °F 64% 29.89 in 10.0 mi SSE 6.9 mph - N/A   Scattered Clouds
11:55 PM 66.2 °F - 55.4 °F 68% 29.88 in 10.0 mi SSE 5.8 mph - N/A   Light Drizzle